Regional Weather Roundup
Issued by NWS Charleston, WV

Home | Current Version | Previous Version | Graphics & Text | Print | Product List | Glossary On
Versions: 1 2 3 4 5 6 7 8 9 10 11 12 13 14 15 16 17 18 19 20 21 22 23 24 25 26 27 28 29 30 31 32 33 34 35 36 37 38 39 40 41 42 43 44 45 46 47 48 49 50
000
ASUS41 KRLX 061010
RWRRLX
West Virginia Regional Weather Roundup
National Weather Service Charleston WV
600 AM EDT WED MAY 06 2015

Note: "fair" indicates few or no clouds below 12,000 feet with no
significant weather and/or obstructions to visibility.

WVZ003-061100-
Northern Panhandle of West Virginia

CITY           SKY/WX    TMP DP  RH WIND       PRES   REMARKS
WHEELING       FOG       57  56  96 CALM      30.22R VSB 1/4
$$

WVZ009-061100-
Northwest West Virginia

CITY           SKY/WX    TMP DP  RH WIND       PRES   REMARKS
PARKERSBURG    CLEAR     56  54  93 CALM      30.23R FOG
$$

WVZ006-061100-
Western West Virginia

CITY           SKY/WX    TMP DP  RH WIND       PRES   REMARKS
HUNTINGTON     PTCLDY    56  55  97 E3        30.20S
$$

WVZ015-061100-
West Central West Virginia

CITY           SKY/WX    TMP DP  RH WIND       PRES   REMARKS
CHARLESTON     MOCLDY    56  54  93 CALM      30.22R
$$

WVZ022-031-061100-
North Central West Virginia

CITY           SKY/WX    TMP DP  RH WIND       PRES   REMARKS
CLARKSBURG     FOG       54  54 100 CALM      30.22S VSB 1/2
MORGANTOWN     CLEAR     58  54  86 CALM      30.23R
$$

WVZ025-035-042-045-061100-
Southern West Virginia

CITY           SKY/WX    TMP DP  RH WIND       PRES   REMARKS
BECKLEY        CLOUDY    59  50  72 CALM      30.27S
LOGAN            N/A     61  54  77 CALM      30.20F
BLUEFIELD      CLOUDY    63  49  60 W6        30.29S
LEWISBURG      MOCLDY    56  54  92 N3        30.27S
$$

WVZ047-061100-
Northern Mountains of West Virginia

CITY           SKY/WX    TMP DP  RH WIND       PRES   REMARKS
ELKINS         FOG       48  46  93 CALM      30.28R VSB 1/4
$$

WVZ052-061100-
Eastern Panhandle of West Virginia

CITY           SKY/WX    TMP DP  RH WIND       PRES   REMARKS
MARTINSBURG    PTCLDY    56  54  93 CALM      30.21R FOG
PETERSBURG     FOG       51  49  90 CALM      30.24S VSB<1/4
$$


USA.gov is the U.S. government's official web portal to all federal, state and local government web resources and services.